x

Destruction Island, Wa (desw1) Weather Station

10:00pm - Fri 9th Dec 2016 All times are PST. -8 hours from GMT.

  • Wind
    17mph, 20mph gusts
  • Air Temp 43°f
  • Sea Pressure 1008.2mb
  • Destruction Island, Wa
  • Destruction Island, Wa

More Historic Weather Station data

Upgrade to MSW Pro to gain access to the past 30 days of data for over 8000 Wavebouys and Weather Stations around the globe.

Join Pro

Comparision Forecast

View Surf forecast
   
Fri 12/09 10:00pm 17 20 mph 1008.2mb 43f
9:00pm 16 17 mph 1008.7mb 42f
8:00pm 14 16 mph 1007.9mb 42f
7:00pm 18 20 mph 1008.2mb 43f
6:00pm 23 28 mph 1008.5mb 43f
5:00pm 32 36 mph 1007.8mb 43f
4:00pm 29 33 mph 1009.2mb 43f
3:00pm 22 23 mph 1010.2mb 43f
2:00pm 22 24 mph 1010.7mb 44f
1:00pm 22 24 mph 1011.4mb 43f
12:00pm 24 25 mph 1012.2mb 43f
11:00am 21 23 mph 1012.6mb 43f
10:00am 22 29 mph 1012.4mb 43f
9:00am 22 24 mph 1012.4mb 42f
8:00am 21 23 mph 1011.9mb 43f
7:00am 21 23 mph 1012.7mb 42f
6:00am 23 26 mph 1011.9mb 42f
5:00am 26 28 mph 1011.5mb 41f
4:00am 25 29 mph 1011.2mb 42f
3:00am 30 32 mph 1010.7mb 42f
2:00am 31 34 mph 1010.1mb 42f
1:00am 36 39 mph 1009.5mb 41f
12:00am 22 26 mph 1009.6mb 38f
Thu 12/08 11:00pm 6 7 mph 1009.8mb 34f
10:00pm 10 11 mph 1009.3mb 34f
9:00pm 7 8 mph 1009.3mb 33f
8:00pm 11 13 mph 1009mb 35f
7:00pm 2 3 mph 1008.9mb 36f
6:00pm 3 5 mph 1008.9mb 39f
5:00pm 8 9 mph 1008.8mb 38f
4:00pm 10 13 mph 1009mb 39f
3:00pm 9 10 mph 1009.8mb 39f
2:00pm  -  mph 1010.4mb 40f
1:00pm 7 8 mph 1010.4mb 39f
12:00pm 7 10 mph 1011.4mb 37f
11:00am 14 15 mph 1012.4mb 35f
10:00am 11 13 mph 1013.7mb 34f
9:00am 16 18 mph 1013.9mb 32f
8:00am 13 15 mph 1014.6mb 32f
7:00am 13 15 mph 1015.5mb 32f
6:00am 11 14 mph 1015.9mb 32f
5:00am 13 16 mph 1016.7mb 32f
4:00am 16 18 mph 1017.7mb 33f
3:00am 13 15 mph 1019mb 32f
2:00am 9 10 mph 1020.1mb 34f
1:00am 11 14 mph 1020.5mb 33f
12:00am 14 15 mph 1021.2mb 33f
Wed 12/07 11:00pm 9 11 mph 1021.9mb 33f
10:00pm 13 14 mph 1022.3mb 33f
9:00pm 14 16 mph 1022.8mb 33f
8:00pm 11 14 mph 1023.5mb 33f
7:00pm 14 16 mph 1024.1mb 34f
6:00pm 14 15 mph 1024.8mb 35f
5:00pm 11 14 mph 1025.6mb 36f
4:00pm 7 8 mph 1026.1mb 38f
3:00pm  -  2 mph 1026.6mb 39f
2:00pm  -  2 mph 1027mb 39f
1:00pm 2 3 mph 1027.6mb 37f
12:00pm  -  2 mph 1028.4mb 37f
11:00am 1 3 mph 1029.1mb 36f
10:00am 8 9 mph 1028.9mb 35f
9:00am 11 14 mph 1028.8mb 33f
8:00am 11 13 mph 1028.7mb 33f
7:00am 15 17 mph 1028.5mb 33f
6:00am 17 20 mph 1028.7mb 33f
5:00am 15 17 mph 1028.8mb 34f
4:00am 13 14 mph 1028.8mb 34f
3:00am 13 14 mph 1028.8mb 35f
2:00am 13 14 mph 1028.6mb 35f
1:00am 11 14 mph 1028.1mb 35f
12:00am 6 8 mph 1027.7mb 37f
Tue 12/06 11:00pm 7 8 mph 1027.1mb 37f
10:00pm 7 8 mph 1026.8mb 37f
9:00pm 7 9 mph 1026.2mb 38f
8:00pm 9 11 mph 1025.4mb 38f
7:00pm 7 8 mph 1025.1mb 37f
6:00pm 8 10 mph 1024.7mb 37f
4:00pm 9 11 mph 1024.1mb 40f
3:00pm 6 7 mph 1023.5mb 40f
2:00pm 3 5 mph 1022.8mb 40f
1:00pm 6 8 mph 1022.5mb 39f
12:00pm 9 11 mph 1022.1mb 39f
11:00am 8 9 mph 1022mb 38f
10:00am 7 8 mph 1021.3mb 38f
9:00am 9 11 mph 1020.7mb 35f
8:00am 10 11 mph 1019.8mb 35f